Weather History for KMOT - September, 2012

Change the Weather History Date:

Saturday, September 1, 2012

  Actual Average Record
Temperature  
Mean Temperature 80 °F 64 °F  
Max Temperature 97 °F 76 °F 104 °F (1915)
Min Temperature 63 °F 52 °F 31 °F (1924)
Cooling Degree Days 15 3  
Month to date cooling degree days 15 3  
Year to date cooling degree days 568 414  
Growing Degree Days 30 (Base 50)    
Moisture  
Dew Point 52 °F    
Average Humidity 39    
Maximum Humidity 56    
Minimum Humidity 21    
Precipitation  
Precipitation 0.07 in 0.05 in 1.11 in (1973)
Month to date precipitation 0.07 0.05  
Year to date precipitation 10.82 13.49  
Sea Level Pressure  
Sea Level Pressure 29.77 in    
Wind  
Wind Speed 14 mph (SE)    
Max Wind Speed 28 mph    
Max Gust Speed 36 mph    
Visibility 10 miles    
Events Rain , Thunderstorm    
T = Trace of Precipitation, MM = Missing Value Source: NWS Daily Summary

Daily Weather History Graph

Daily Weather History Graph

Search for Another Location

Airport or City:

Trip Planner

Search our weather history database for the weather conditions in past years. The results will help you decide how hot, cold, wet, or windy it might be!

Date:

Astronomy

Sep. 01, 2012 Rise Set
Actual Time 7:03 AM CDT 8:25 PM CDT
Civil Twilight 6:31 AM CDT 8:57 PM CDT
Nautical Twilight 5:51 AM CDT 9:36 PM CDT
Astronomical Twilight 5:09 AM CDT 10:18 PM CDT
Moon 8:30 PM CDT (9/1) 8:23 AM CDT (9/1)
Length of Visible Light 14h 26m
Length of Day
13h 21m
Full, 99% of the Moon is Illuminated
Sep 1
Full
Sep 8
Last Quarter
Sep 15
New
Sep 22
First Quarter
Sep 29
Full

Hourly Weather History & Observations

Time (CDT) Temp. Heat Index Dew Point Humidity Pressure Visibility Wind Dir Wind Speed Gust Speed Precip Events Conditions
12:54 AM 64.4 °F - 46.4 °F 52% 30.03 in 10.0 mi ESE 6.9 mph - N/A   Clear
1:54 AM 64.9 °F - 46.9 °F 52% 30.00 in 10.0 mi ESE 10.4 mph - N/A   Clear
2:54 AM 64.0 °F - 48.9 °F 58% 30.00 in 10.0 mi ESE 12.7 mph - 0.00 in   Partly Cloudy
3:54 AM 64.0 °F - 52.0 °F 65% 29.95 in 10.0 mi ESE 16.1 mph - 0.00 in Rain Light Rain
4:54 AM 64.9 °F - 50.0 °F 58% 29.93 in 10.0 mi ESE 19.6 mph 28.8 mph 0.00 in   Mostly Cloudy
5:54 AM 66.9 °F - 48.0 °F 51% 29.90 in 10.0 mi ESE 24.2 mph 31.1 mph N/A   Partly Cloudy
6:54 AM 66.0 °F - 48.9 °F 54% 29.91 in 10.0 mi ESE 17.3 mph 24.2 mph N/A   Clear
7:54 AM 66.9 °F - 48.0 °F 51% 29.89 in 10.0 mi ESE 15.0 mph 26.5 mph N/A   Clear
8:54 AM 66.9 °F - 48.9 °F 52% 29.87 in 10.0 mi ESE 16.1 mph - N/A   Clear
9:54 AM 69.1 °F - 50.0 °F 51% 29.84 in 10.0 mi ESE 15.0 mph - N/A   Clear
10:54 AM 71.1 °F - 50.0 °F 47% 29.83 in 10.0 mi ESE 20.7 mph 28.8 mph N/A   Clear
11:54 AM 72.0 °F - 51.1 °F 48% 29.81 in 10.0 mi ESE 15.0 mph - N/A   Clear
12:54 PM 79.0 °F - 52.0 °F 39% 29.78 in 10.0 mi SE 16.1 mph 23.0 mph N/A   Clear
1:54 PM 82.4 °F - 51.8 °F 35% 29.75 in 10.0 mi SE 17.3 mph 27.6 mph N/A   Clear
2:54 PM 88.0 °F - 52.0 °F 29% 29.70 in 10.0 mi SSE 17.3 mph 24.2 mph N/A   Clear
3:54 PM 91.0 °F - 51.1 °F 25% 29.68 in 10.0 mi SSE 18.4 mph 25.3 mph N/A   Clear
4:54 PM 95.0 °F - 50.0 °F 22% 29.64 in 10.0 mi SSE 19.6 mph 26.5 mph N/A   Clear
5:54 PM 96.1 °F - 50.0 °F 21% 29.61 in 10.0 mi SE 12.7 mph 21.9 mph N/A   Clear
6:54 PM 93.9 °F - 48.0 °F 21% 29.60 in 10.0 mi SE 6.9 mph - N/A   Clear
7:54 PM 91.0 °F - 46.9 °F 22% 29.60 in 10.0 mi SSE 11.5 mph - N/A   Clear
8:54 PM 86.0 °F 84.5 °F 55.0 °F 35% 29.61 in 10.0 mi WSW 9.2 mph - 0.00 in Rain Light Rain
9:52 PM 82.4 °F 81.7 °F 55.4 °F 39% 29.65 in 10.0 mi WNW 15.0 mph - 0.00 in Thunderstorm Partly Cloudy
9:54 PM 82.0 °F 81.6 °F 55.9 °F 41% 29.62 in 10.0 mi WNW 15.0 mph - 0.00 in Thunderstorm Partly Cloudy
10:35 PM 77.0 °F - 60.8 °F 57% 29.66 in 10.0 mi West 6.9 mph - 0.01 in   Scattered Clouds
10:52 PM 75.2 °F - 62.6 °F 65% 29.68 in 10.0 mi SSE 4.6 mph - 0.01 in Thunderstorm Partly Cloudy
10:54 PM 75.9 °F - 62.1 °F 62% 29.66 in 10.0 mi SSE 3.5 mph - 0.01 in Thunderstorm Partly Cloudy
11:07 PM 75.2 °F - 62.6 °F 65% 29.70 in 10.0 mi SSE 6.9 mph - N/A   Clear
11:54 PM 75.0 °F - 61.0 °F 62% 29.66 in 10.0 mi West 8.1 mph - 0.00 in   Mostly Cloudy